GW2438 Weather Reports


time (UTC)temp
C
wind
direction
speed
KPH
gust
KPH
rain 1hr
cm
rain 24hr
cm
rain mn
cm
humidity
%
barometer
mb
20260504043537 21 4 1.6 3.2 0.00 0.00 0.00 39 1009.4
20260504042535 21 9 1.6 3.2 0.00 0.00 0.00 38 1009.4
20260504041534 21 8 1.6 6.4 0.00 0.00 0.00 39 1009.3
20260504040532 21 0 3.2 4.8 0.00 0.00 0.00 39 1009.4
20260504035530 21 319 1.6 3.2 0.00 0.00 0.00 38 1009.4
20260504034528 21 330 1.6 6.4 0.00 0.00 0.00 39 1009.2
20260504033527 21 7 3.2 6.4 0.00 0.00 0.00 39 1009.2
20260504032545 21 9 3.2 6.4 0.00 0.00 0.00 40 1009.2
20260504031543 22 351 3.2 12.9 0.00 0.00 0.00 40 1009.2
20260504030521 22 347 3.2 6.4 0.00 0.00 0.00 40 1009.2
20260504025520 22 350 3.2 6.4 0.00 0.00 0.00 39 1009.2
20260504024558 23 8 3.2 6.4 0.00 0.00 0.00 39 1009.2
20260504023516 23 344 4.8 12.9 0.00 0.00 0.00 40 1009.0
20260504022614 23 1 6.4 11.3 0.00 0.00 0.00 41 1009.0
20260504021615 23 4 3.2 6.4 0.00 0.00 0.00 41 1009.1
20260504020611 23 4 4.8 9.7 0.00 0.00 0.00 41 1009.1
20260504015609 24 12 6.4 12.9 0.00 0.00 0.00 40 1009.2
20260504014607 24 1 3.2 6.4 0.00 0.00 0.00 39 1009.2
20260504013626 24 348 4.8 9.7 0.00 0.00 0.00 38 1009.3
20260504012604 24 353 6.4 12.9 0.00 0.00 0.00 38 1009.3
20260504011602 24 342 4.8 11.3 0.00 0.00 0.00 38 1009.4
20260504010620 25 358 6.4 11.3 0.00 0.00 0.00 38 1009.4
20260504005558 25 348 3.2 9.7 0.00 0.00 0.00 38 1009.5
20260504004556 25 357 4.8 12.9 0.00 0.00 0.00 38 1009.6
20260504003555 25 349 4.8 11.3 0.00 0.00 0.00 38 1009.7
20260504002613 25 360 6.4 11.3 0.00 0.00 0.00 38 1009.8
20260504001551 25 352 4.8 12.9 0.00 0.00 0.00 39 1009.9
20260504000550 25 351 8.0 12.9 0.00 0.00 0.00 38 1010.0
20260503235548 25 358 8.0 16.1 0.00 0.00 0.00 38 1010.0
20260503234546 25 2 9.7 20.9 0.00 0.00 0.00 38 1010.2
20260503233544 25 355 6.4 16.1 0.00 0.00 0.00 37 1010.4
20260503232542 25 346 4.8 11.3 0.00 0.00 0.00 37 1010.5
20260503231546 25 19 6.4 12.9 0.00 0.00 0.00 35 1010.6
20260503230539 25 340 4.8 11.3 0.00 0.00 0.00 36 1010.7
20260503225538 25 8 6.4 11.3 0.00 0.00 0.00 37 1010.8
20260503224535 25 12 6.4 14.5 0.00 0.00 0.00 38 1011.0
20260503223533 25 35 4.8 12.9 0.00 0.00 0.00 41 1011.0
20260503222532 25 6 4.8 9.7 0.00 0.00 0.00 41 1011.1
20260503221530 24 7 4.8 11.3 0.00 0.00 0.00 43 1011.2
20260503220528 24 7 4.8 9.7 0.00 0.00 0.00 43 1011.5
20260503215526 24 335 3.2 11.3 0.00 0.00 0.00 43 1011.5
20260503214545 24 10 4.8 11.3 0.00 0.00 0.00 43 1011.7
20260503213523 23 355 6.4 11.3 0.00 0.00 0.00 43 1011.6
20260503212541 23 349 6.4 11.3 0.00 0.00 0.00 45 1011.8
20260503211519 23 354 6.4 14.5 0.00 0.00 0.00 44 1011.9
20260503210518 23 5 6.4 14.5 0.00 0.00 0.00 47 1012.1
20260503205516 23 359 4.8 12.9 0.00 0.00 0.00 46 1012.1
20260503204614 23 357 4.8 14.5 0.00 0.00 0.00 48 1012.2
20260503203612 22 4 6.4 11.3 0.00 0.00 0.00 48 1012.5
20260503202611 22 320 4.8 9.7 0.00 0.00 0.00 48 1012.6
20260503201609 22 357 6.4 12.9 0.00 0.00 0.00 48 1012.6
20260503200608 22 15 6.4 14.5 0.00 0.00 0.00 51 1012.8
20260503195606 22 332 4.8 9.7 0.00 0.00 0.00 51 1012.9
20260503194604 22 11 6.4 11.3 0.00 0.00 0.00 53 1012.9
20260503193622 21 342 1.6 4.8 0.00 0.00 0.00 54 1013.1
20260503192601 21 3 4.8 9.7 0.00 0.00 0.00 54 1013.2
20260503191619 21 12 4.8 9.7 0.00 0.00 0.00 55 1013.3
20260503190557 21 349 3.2 9.7 0.00 0.00 0.00 56 1013.4
20260503185555 21 342 4.8 9.7 0.00 0.00 0.00 54 1013.4
20260503184554 21 356 8.0 9.7 0.00 0.00 0.00 55 1013.5
20260503183552 21 339 4.8 11.3 0.00 0.00 0.00 56 1013.6
20260503182550 21 10 4.8 12.9 0.00 0.00 0.00 56 1013.7
20260503181549 21 357 3.2 6.4 0.00 0.00 0.00 57 1013.8
20260503180547 20 29 3.2 6.4 0.00 0.00 0.00 58 1013.8
20260503175605 20 347 4.8 11.3 0.00 0.00 0.00 58 1013.9
20260503174543 20 13 4.8 9.7 0.00 0.00 0.00 58 1014.1
20260503173541 20 7 6.4 12.9 0.00 0.00 0.00 59 1013.9
20260503172540 19 355 3.2 6.4 0.00 0.00 0.00 59 1014.0
20260503171538 18 3 4.8 9.7 0.00 0.00 0.00 60 1014.1
20260503170536 18 359 6.4 11.3 0.00 0.00 0.00 59 1014.1
20260503150616 25 18 1.6 3.2 0.00 0.00 0.00 51 1014.2
20260503130554 11 0.0 0.0 0.00 0.00 0.00 83 1014.1
20260503110554 12 0.0 0.0 0.00 0.00 0.00 76 1014.1
20260503081604 16 0.0 0.0 0.00 0.00 0.00 56 1014.6
20260503080602 16 119 1.6 1.6 0.00 0.00 0.00 55 1014.4
20260503072555 18 107 0.0 1.6 0.00 0.00 0.00 49 1014.3
20260503071554 18 44 3.2 9.7 0.00 0.00 0.00 48 1014.4
20260503070555 18 78 1.6 3.2 0.00 0.00 0.00 48 1014.5
20260503054538 18 18 0.0 3.2 0.00 0.00 0.00 51 1014.2
20260503053557 18 76 0.0 4.8 0.00 0.00 0.00 52 1014.2
20260503052534 18 22 1.6 4.8 0.00 0.00 0.00 52 1014.2
20260503051533 18 61 0.0 3.2 0.00 0.00 0.00 53 1014.2
20260503050531 18 0.0 0.0 0.00 0.00 0.00 53 1014.2
20260503045529 18 25 1.6 4.8 0.00 0.00 0.00 54 1014.1
20260503044608 18 11 1.6 4.8 0.00 0.00 0.00 54 1014.1